Hourly Data Report for October 08, 2006

TORONTO CITY
ONTARIO

43°40'00.000" N
79°24'00.000" W
112.50 m
6158355
71508
XTO

Download Data

Hourly Data (October 2006)
Hourly Data Report for October 8, 2006
TIME
LST
Temp Definition
°C
Dew Point Definition
°C
Rel Hum Definition
%
Precip. Amount Definition
mm

Wind Dir Definition
10's deg

Wind Spd Definition
km/h
Visibility Definition
km
Stn Press Definition
kPa
Hmdx Definition


Wind Chill Definition


Weather Definition


00:00 10.0 8.2 89   LegendMM LegendMM   101.39     LegendNANA
01:00 9.1 7.7 91   LegendMM LegendMM   101.36     LegendNANA
02:00 8.7 7.5 92   LegendMM LegendMM   101.34     LegendNANA
03:00 8.6 7.6 93   LegendMM LegendMM   101.31     LegendNANA
04:00 8.1 7.2 94   LegendMM LegendMM   101.31     LegendNANA
05:00 7.8 7.0 95   LegendMM LegendMM   101.32     LegendNANA
06:00 7.4 6.5 94   LegendMM LegendMM   101.34     LegendNANA
07:00 7.8 7.1 95   LegendMM LegendMM   101.32     LegendNANA
08:00 10.4 9.1 92   LegendMM LegendMM   101.34     LegendNANA
09:00 12.8 10.2 84   LegendMM LegendMM   101.34     LegendNANA
10:00 14.3 9.9 75   LegendMM LegendMM   101.30     LegendNANA
11:00 15.9 10.3 69   LegendMM LegendMM   101.22     LegendNANA
12:00 17.2 11.0 67   LegendMM LegendMM   101.14     LegendNANA
13:00 18.6 11.8 65   LegendMM LegendMM   101.07     LegendNANA
14:00 19.6 12.2 62   LegendMM LegendMM   100.96     LegendNANA
15:00 19.1 12.8 67   LegendMM LegendMM   100.87     LegendNANA
16:00 19.0 13.9 72   LegendMM LegendMM   100.83     LegendNANA
17:00 18.7 14.2 75   LegendMM LegendMM   100.78     LegendNANA
18:00 17.6 14.2 80   LegendMM LegendMM   100.75     LegendNANA
19:00 16.1 14.0 87   LegendMM LegendMM   100.75     LegendNANA
20:00 16.0 14.5 91   LegendMM LegendMM   100.73     LegendNANA
21:00 14.9 13.6 92   LegendMM LegendMM   100.71     LegendNANA
22:00 14.4 13.8 96   LegendMM LegendMM   100.68     LegendNANA
23:00 14.3 13.6 96   LegendMM LegendMM   100.68     LegendNANA

Notes on Data Quality.

Legend

  • E = Estimated
  • M = Missing
  • NA = Not Available*
  • [empty] = Indicates an unobserved value
Date modified: